| time (UTC) | temp F | wind direction | speed knots | gust knots | rain 1hr in | rain 24hr in | rain mn in | humidity % | barometer mb |
| 20260506003030 | 48 | 245 | 12.2 | 20.9 | 0.00 | 0.09 | 0.09 | 98 | 1007.3 |
| 20260506001531 | 48 | 254 | 12.2 | 20.9 | 0.00 | 0.09 | 0.09 | 98 | 1006.9 |
| 20260506000034 | 48 | 245 | 13.0 | 22.6 | 0.00 | 0.09 | 0.09 | 98 | 1006.9 |
| 20260505234534 | 48 | 260 | 11.3 | 20.0 | 0.00 | 0.09 | 0.09 | 98 | 1006.8 |
| 20260505233034 | 48 | 245 | 11.3 | 20.9 | 0.00 | 0.09 | 0.09 | 97 | 1006.6 |
| 20260505231533 | 48 | 245 | 12.2 | 19.1 | 0.01 | 0.09 | 0.09 | 98 | 1006.3 |
| 20260505230039 | 48 | 268 | 15.6 | 31.3 | 0.01 | 0.09 | 0.09 | 97 | 1006.7 |
| 20260505224533 | 48 | 245 | 22.6 | 34.8 | 0.03 | 0.09 | 0.09 | 97 | 1006.2 |
| 20260505223036 | 48 | 245 | 20.9 | 33.0 | 0.04 | 0.09 | 0.09 | 96 | 1006.3 |
| 20260505221532 | 48 | 245 | 20.9 | 31.3 | 0.07 | 0.08 | 0.08 | 96 | 1005.9 |
| 20260505220032 | 48 | 232 | 20.0 | 29.5 | 0.08 | 0.08 | 0.08 | 96 | 1006.4 |
| 20260505214530 | 49 | 245 | 23.5 | 32.2 | 0.06 | 0.06 | 0.06 | 96 | 1006.7 |
| 20260505213034 | 50 | 245 | 22.6 | 32.2 | 0.05 | 0.05 | 0.05 | 94 | 1006.0 |
| 20260505211535 | 54 | 273 | 18.2 | 26.1 | 0.01 | 0.01 | 0.01 | 81 | 1005.5 |
| 20260505210034 | 61 | 245 | 12.2 | 20.0 | 0.00 | 0.00 | 0.00 | 54 | 1004.8 |
| 20260505204533 | 61 | 245 | 13.0 | 26.1 | 0.00 | 0.00 | 0.00 | 54 | 1004.8 |
| 20260505203036 | 61 | 169 | 14.8 | 22.6 | 0.00 | 0.00 | 0.00 | 56 | 1004.5 |
| 20260505201537 | 60 | 162 | 17.4 | 25.2 | 0.00 | 0.00 | 0.00 | 56 | 1004.3 |
| 20260505200032 | 60 | 245 | 13.0 | 23.5 | 0.00 | 0.00 | 0.00 | 58 | 1004.5 |
| 20260505194532 | 60 | 245 | 15.6 | 25.2 | 0.00 | 0.00 | 0.00 | 58 | 1004.5 |
| 20260505193030 | 61 | 166 | 14.8 | 23.5 | 0.00 | 0.00 | 0.00 | 57 | 1004.6 |
| 20260505191529 | 62 | 245 | 13.9 | 23.5 | 0.00 | 0.00 | 0.00 | 56 | 1004.6 |
| 20260505190036 | 63 | 152 | 11.3 | 24.3 | 0.00 | 0.00 | 0.00 | 55 | 1005.2 |
| 20260505184530 | 63 | 156 | 12.2 | 20.9 | 0.00 | 0.00 | 0.00 | 53 | 1005.3 |
| 20260505183042 | 62 | 166 | 8.7 | 18.2 | 0.00 | 0.00 | 0.00 | 58 | 1005.5 |
| 20260505181534 | 60 | 157 | 12.2 | 20.0 | 0.00 | 0.00 | 0.00 | 58 | 1005.5 |
| 20260505180034 | 60 | 171 | 15.6 | 21.7 | 0.00 | 0.00 | 0.00 | 59 | 1005.5 |
| 20260505174531 | 60 | 245 | 16.5 | 24.3 | 0.00 | 0.00 | 0.00 | 59 | 1005.6 |
| 20260505173039 | 59 | 172 | 12.2 | 26.9 | 0.00 | 0.00 | 0.00 | 60 | 1005.9 |
| 20260505171542 | 60 | 170 | 14.8 | 22.6 | 0.00 | 0.00 | 0.00 | 59 | 1006.0 |
| 20260505170030 | 59 | 245 | 15.6 | 21.7 | 0.00 | 0.00 | 0.00 | 61 | 1006.0 |
| 20260505164532 | 58 | 165 | 13.9 | 20.9 | 0.00 | 0.00 | 0.00 | 64 | 1006.3 |
| 20260505163032 | 57 | 163 | 12.2 | 21.7 | 0.00 | 0.00 | 0.00 | 67 | 1006.7 |
| 20260505161530 | 56 | 135 | 12.2 | 21.7 | 0.00 | 0.00 | 0.00 | 67 | 1006.8 |
| 20260505153034 | 55 | 245 | 14.8 | 24.3 | 0.00 | 0.00 | 0.00 | 68 | 1007.0 |
| 20260505151536 | 53 | 157 | 13.0 | 20.9 | 0.00 | 0.00 | 0.00 | 70 | 1007.0 |
| 20260505124530 | 50 | 245 | 14.8 | 21.7 | 0.00 | 0.00 | 0.00 | 67 | 1006.4 |
| 20260505123032 | 51 | 156 | 16.5 | 23.5 | 0.00 | 0.00 | 0.00 | 68 | 1006.6 |
| 20260505121537 | 50 | 152 | 15.6 | 23.5 | 0.00 | 0.00 | 0.00 | 69 | 1006.8 |
| 20260505120055 | 49 | 245 | 14.8 | 24.3 | 0.00 | 0.00 | 0.00 | 69 | 1007.0 |
| 20260505114530 | 49 | 245 | 15.6 | 23.5 | 0.00 | 0.00 | 0.00 | 69 | 1007.0 |
| 20260505113029 | 48 | 183 | 13.9 | 25.2 | 0.00 | 0.00 | 0.00 | 70 | 1007.2 |
| 20260505111531 | 48 | 245 | 13.9 | 21.7 | 0.00 | 0.00 | 0.00 | 70 | 1007.3 |
| 20260505101530 | 47 | 187 | 13.9 | 23.5 | 0.00 | 0.00 | 0.00 | 70 | 1007.0 |
| 20260505100032 | 47 | 181 | 13.9 | 21.7 | 0.00 | 0.00 | 0.00 | 69 | 1006.9 |
| 20260505094532 | 47 | 203 | 13.0 | 22.6 | 0.00 | 0.00 | 0.00 | 69 | 1007.0 |
| 20260505093037 | 47 | 188 | 16.5 | 23.5 | 0.00 | 0.00 | 0.00 | 68 | 1007.0 |
| 20260505091531 | 47 | 245 | 16.5 | 25.2 | 0.00 | 0.00 | 0.00 | 67 | 1006.9 |
| 20260505090041 | 48 | 245 | 18.2 | 26.9 | 0.00 | 0.00 | 0.00 | 66 | 1006.9 |
| 20260505084532 | 47 | 174 | 17.4 | 26.1 | 0.00 | 0.00 | 0.00 | 66 | 1007.0 |
| 20260505083030 | 47 | 203 | 16.5 | 29.5 | 0.00 | 0.00 | 0.00 | 65 | 1007.0 |
| 20260505081536 | 47 | 193 | 17.4 | 27.8 | 0.00 | 0.00 | 0.00 | 64 | 1006.9 |
| 20260505080037 | 47 | 187 | 15.6 | 26.1 | 0.00 | 0.00 | 0.00 | 64 | 1007.0 |
| 20260505074530 | 47 | 245 | 14.8 | 23.5 | 0.00 | 0.00 | 0.00 | 64 | 1007.2 |
| 20260505073045 | 47 | 179 | 13.9 | 25.2 | 0.00 | 0.00 | 0.00 | 65 | 1007.2 |
| 20260505071531 | 46 | 147 | 15.6 | 20.9 | 0.00 | 0.00 | 0.00 | 66 | 1007.1 |
| 20260505070030 | 46 | 159 | 14.8 | 21.7 | 0.00 | 0.00 | 0.00 | 67 | 1007.1 |
| 20260505064540 | 46 | 163 | 15.6 | 20.9 | 0.00 | 0.00 | 0.00 | 68 | 1007.2 |
| 20260505063031 | 46 | 152 | 14.8 | 21.7 | 0.00 | 0.00 | 0.00 | 68 | 1007.2 |
| 20260505061545 | 46 | 181 | 14.8 | 21.7 | 0.00 | 0.00 | 0.00 | 66 | 1007.2 |
| 20260505060033 | 46 | 148 | 14.8 | 21.7 | 0.00 | 0.00 | 0.00 | 67 | 1007.1 |
| 20260505054552 | 46 | 245 | 13.0 | 18.2 | 0.00 | 0.00 | 0.00 | 67 | 1007.2 |
| 20260505053034 | 47 | 187 | 14.8 | 21.7 | 0.00 | 0.00 | 0.00 | 66 | 1007.2 |
| 20260505051534 | 47 | 188 | 13.9 | 21.7 | 0.00 | 0.00 | 0.00 | 66 | 1007.2 |
| 20260505041532 | 46 | 181 | 11.3 | 18.2 | 0.00 | 0.00 | 0.00 | 67 | 1007.1 |
| 20260505040032 | 46 | 183 | 11.3 | 17.4 | 0.00 | 0.00 | 0.00 | 66 | 1007.0 |
| 20260505034532 | 46 | 194 | 10.4 | 15.6 | 0.00 | 0.00 | 0.00 | 67 | 1007.0 |
| 20260505033033 | 46 | 245 | 11.3 | 17.4 | 0.00 | 0.00 | 0.00 | 67 | 1006.9 |
| 20260505031542 | 46 | 188 | 10.4 | 15.6 | 0.00 | 0.00 | 0.00 | 68 | 1007.0 |
| 20260505030033 | 46 | 245 | 10.4 | 15.6 | 0.00 | 0.00 | 0.00 | 70 | 1007.0 |
| 20260505024538 | 46 | 180 | 9.6 | 14.8 | 0.00 | 0.00 | 0.00 | 71 | 1007.2 |
| 20260505023034 | 46 | 245 | 9.6 | 14.8 | 0.00 | 0.00 | 0.00 | 71 | 1007.2 |
| 20260505021533 | 45 | 245 | 9.6 | 13.0 | 0.00 | 0.00 | 0.00 | 72 | 1007.4 |
| 20260505020034 | 45 | 205 | 8.7 | 17.4 | 0.00 | 0.00 | 0.00 | 72 | 1007.3 |
| 20260505014536 | 45 | 189 | 9.6 | 15.6 | 0.00 | 0.00 | 0.00 | 73 | 1007.4 |
| 20260505013029 | 45 | 208 | 9.6 | 15.6 | 0.00 | 0.00 | 0.00 | 74 | 1007.2 |
| 20260505011536 | 44 | 182 | 8.7 | 15.6 | 0.00 | 0.00 | 0.00 | 76 | 1007.0 |
| 20260505010032 | 44 | 179 | 8.7 | 13.0 | 0.00 | 0.00 | 0.00 | 77 | 1006.9 |
| 20260505004544 | 44 | 166 | 9.6 | 14.8 | 0.00 | 0.00 | 0.00 | 78 | 1006.5 |